EDT,Max TemperatureF,Mean TemperatureF,Min TemperatureF,Max Dew PointF,MeanDew PointF,Min DewpointF,Max Humidity, Mean Humidity, Min Humidity, Max Sea Level PressureIn, Mean Sea Level PressureIn, Min Sea Level PressureIn, Max VisibilityMiles, Mean VisibilityMiles, Min VisibilityMiles, Max Wind SpeedMPH, Mean Wind SpeedMPH, Max Gust SpeedMPH,PrecipitationIn, CloudCover, Events, WindDirDegrees
2013-8-1,78,68,59,65,61,54,100,83,43,29.95,29.92,29.90,10,7,2,12,6,,0.00,5,Rain,269
2013-8-2,73,64,54,65,59,53,98,84,61,29.95,29.91,29.86,10,10,5,17,6,24,0.00,3,,234
2013-8-3,76,66,56,64,57,50,100,72,41,30.08,30.00,29.92,10,7,0,14,4,,0.00,4,Fog,318
2013-8-4,71,62,53,59,54,51,96,74,50,30.19,30.14,30.08,10,10,10,10,3,17,0.00,2,,339
2013-8-5,72,62,52,59,53,48,95,71,44,30.13,30.07,29.98,10,10,10,9,4,,0.00,4,,174
2013-8-6,78,70,63,70,64,57,96,84,65,29.98,29.94,29.90,10,9,4,12,6,16,0.00,7,Rain,164
2013-8-7,82,73,64,71,68,62,99,85,63,29.93,29.88,29.82,10,8,2,24,6,28,0.00,3,Rain,216
2013-8-8,75,69,63,68,61,56,95,76,54,30.04,29.99,29.93,10,10,10,8,5,,0.00,3,,2
2013-8-9,80,68,57,61,57,52,98,68,39,30.03,29.99,29.97,10,10,5,12,2,16,0.00,1,,263
2013-8-10,76,68,59,62,57,53,90,72,45,30.16,30.11,30.04,10,10,7,7,2,,0.00,2,,10
2013-8-11,78,69,60,61,58,54,90,70,42,30.14,30.11,30.05,10,10,10,9,4,,0.00,7,,232
2013-8-12,70,66,63,69,64,59,100,92,76,30.08,29.98,29.87,10,8,2,9,2,,0.00,7,Rain,217
2013-8-13,66,59,52,65,51,45,100,73,48,30.07,29.98,29.87,10,10,0,15,8,23,0.00,4,Fog,328
2013-8-14,69,58,46,52,48,45,96,73,43,30.18,30.14,30.08,10,10,10,8,5,16,0.00,3,,301
2013-8-15,72,60,47,56,51,47,99,72,42,30.18,30.15,30.10,10,10,10,9,3,,0.00,3,,230
2013-8-16,77,64,50,57,53,50,97,70,39,30.22,30.18,30.13,10,10,7,6,3,,0.00,1,,289
2013-8-17,78,64,51,58,53,48,99,67,38,30.29,30.24,30.21,10,10,7,9,2,,0.00,0,,96
2013-8-18,80,66,52,64,57,52,99,73,40,30.25,30.19,30.13,10,9,4,6,1,,0.00,2,,96
2013-8-19,82,69,56,62,57,51,97,68,35,30.14,30.11,30.06,10,10,5,12,2,16,0.00,1,,256
2013-8-20,85,73,61,66,62,59,94,70,41,30.17,30.12,30.09,10,10,7,10,4,16,0.00,1,,228
2013-8-21,86,76,66,68,66,62,93,72,45,30.15,30.10,30.01,10,9,7,12,4,,0.00,1,,207
2013-8-22,82,74,67,69,67,64,97,80,59,30.07,30.04,29.96,10,9,3,14,6,20,0.00,1,Rain,270
2013-8-23,79,68,58,68,56,45,97,67,32,30.23,30.15,30.07,10,10,7,10,3,,0.00,0,,6
2013-8-24,82,68,54,62,55,50,97,67,32,30.33,30.28,30.22,10,10,10,7,2,,0.00,1,,158
2013-8-25,87,72,57,64,60,57,99,67,38,30.31,30.25,30.17,10,10,10,14,5,17,0.00,0,,204
2013-8-26,87,78,68,71,66,61,91,68,52,30.18,30.09,30.00,10,10,4,15,7,21,0.00,2,,245
2013-8-27,84,77,70,77,73,70,98,89,72,30.03,29.95,29.83,10,8,1,18,5,30,0.00,4,Rain,205
2013-8-28,80,74,68,76,72,66,99,90,73,30.03,29.92,29.82,10,7,2,13,5,22,0.00,6,Rain,334
2013-8-29,85,74,64,71,68,64,100,84,57,30.11,30.06,30.03,10,7,0,7,1,,0.00,3,Fog,19
2013-8-30,86,76,67,73,68,65,96,76,53,30.03,29.90,29.77,10,9,4,15,5,22,0.00,1,,224
2013-8-31,77,71,65,74,67,65,97,85,68,29.88,29.84,29.79,10,9,5,9,3,,0.00,6,Rain,2